HAZ2174 ZLDH-ZSHC

Flight info

Callsign HAZ2174
Flight time N/A
Altitude 35100
Route VIKUP W191 DNC W565 BIGUX W214 HO H14 P396 H131 ATGEN W283 SUDGO H132 P234 H36 SNF W269 OLPOV B213 WHA R343 SAGUD W50 XSH H17 JDZ H26 TXN G204 OREXA
Aircraft A320/M-SDE3FGHIRWY/LB1

Departure

Time 2026-04-23 07:12
Airport Dunhuang Mogao International Airport (ZLDH)

Arrival

Time N/A
Airport Hangzhou Xiaoshan International Airport (ZSHC)
Time Latitude Longitude Altitude Speed Heading
2026-04-23 06:50 40.16494 94.80542 3702 ft 0 kts 354°
2026-04-23 07:02 40.16486 94.80543 3696 ft 3 kts 355°
2026-04-23 07:02 40.16465 94.80545 3701 ft 3 kts 358°
2026-04-23 07:02 40.16443 94.80545 3699 ft 3 kts
2026-04-23 07:03 40.16421 94.80543 3700 ft 3 kts 11°
2026-04-23 07:03 40.16401 94.80535 3702 ft 3 kts 34°
2026-04-23 07:03 40.16390 94.80519 3701 ft 2 kts 83°
2026-04-23 07:03 40.16389 94.80512 3703 ft 0 kts 84°
2026-04-23 07:06 40.16389 94.80514 3696 ft 1 kts 84°
2026-04-23 07:06 40.16393 94.80558 3696 ft 9 kts 84°
2026-04-23 07:06 40.16404 94.80687 3696 ft 19 kts 84°
2026-04-23 07:06 40.16416 94.80844 3700 ft 16 kts 84°
2026-04-23 07:07 40.16426 94.80981 3696 ft 14 kts 84°
2026-04-23 07:07 40.16438 94.81142 3696 ft 20 kts 83°
2026-04-23 07:07 40.16447 94.81286 3696 ft 12 kts 99°
2026-04-23 07:07 40.16381 94.81321 3695 ft 12 kts 174°
2026-04-23 07:08 40.16288 94.81334 3693 ft 14 kts 174°
2026-04-23 07:08 40.16210 94.81402 3694 ft 15 kts 96°
2026-04-23 07:08 40.16218 94.81557 3690 ft 20 kts 84°
2026-04-23 07:08 40.16232 94.81736 3690 ft 20 kts 84°
2026-04-23 07:09 40.16251 94.81971 3692 ft 29 kts 84°
2026-04-23 07:09 40.16271 94.82230 3703 ft 28 kts 84°
2026-04-23 07:09 40.16291 94.82483 3696 ft 28 kts 84°
2026-04-23 07:09 40.16311 94.82731 3697 ft 28 kts 84°
2026-04-23 07:10 40.16330 94.82967 3703 ft 22 kts 82°
2026-04-23 07:10 40.16391 94.83105 3696 ft 14 kts 65°
2026-04-23 07:10 40.16396 94.83213 3701 ft 10 kts 121°
2026-04-23 07:10 40.16351 94.83204 3697 ft 6 kts 232°
2026-04-23 07:11 40.16345 94.83157 3695 ft 0 kts 263°
2026-04-23 07:11 40.16344 94.83148 3695 ft 10 kts 263°
2026-04-23 07:12 40.16231 94.81721 3690 ft 138 kts 264°
2026-04-23 07:12 40.16117 94.80267 3727 ft 179 kts 265°
2026-04-23 07:12 40.15971 94.78585 4224 ft 193 kts 261°
2026-04-23 07:12 40.15805 94.76820 4948 ft 197 kts 264°
2026-04-23 07:13 40.15643 94.75049 5653 ft 199 kts 263°
2026-04-23 07:13 40.15474 94.73168 5872 ft 219 kts 264°
2026-04-23 07:13 40.15289 94.71086 6122 ft 243 kts 264°
2026-04-23 07:13 40.15085 94.68791 6461 ft 264 kts 264°
2026-04-23 07:14 40.14797 94.66394 7148 ft 270 kts 253°
2026-04-23 07:14 40.13742 94.64362 7918 ft 279 kts 220°
2026-04-23 07:14 40.11941 94.63347 8649 ft 291 kts 191°
2026-04-23 07:14 40.09899 94.63222 9458 ft 296 kts 181°
2026-04-23 07:15 40.07828 94.63305 10152 ft 302 kts 181°
2026-04-23 07:15 40.05647 94.63388 10344 ft 325 kts 181°
2026-04-23 07:15 40.03303 94.63460 10511 ft 348 kts 183°
2026-04-23 07:15 40.00802 94.63450 10657 ft 371 kts 178°
2026-04-23 07:16 39.98215 94.64035 11081 ft 384 kts 164°
2026-04-23 07:16 39.95801 94.65596 11674 ft 393 kts 144°
2026-04-23 07:16 39.93903 94.68183 12269 ft 401 kts 123°
2026-04-23 07:16 39.92795 94.71517 12860 ft 405 kts 103°
2026-04-23 07:17 39.92533 94.75177 13451 ft 409 kts 89°
2026-04-23 07:17 39.92529 94.78902 13985 ft 413 kts 89°
2026-04-23 07:17 39.92515 94.82659 14526 ft 416 kts 89°
2026-04-23 07:17 39.92491 94.86444 15065 ft 419 kts 89°
2026-04-23 07:18 39.92458 94.90256 15590 ft 423 kts 89°
2026-04-23 07:18 39.92421 94.94095 16095 ft 426 kts 89°
2026-04-23 07:18 39.92383 94.97908 16602 ft 429 kts 89°
2026-04-23 07:18 39.92344 95.01804 17120 ft 431 kts 89°
2026-04-23 07:19 39.92307 95.05726 17636 ft 434 kts 88°
2026-04-23 07:19 39.92272 95.09673 18128 ft 437 kts 88°
2026-04-23 07:19 39.92060 95.13640 18540 ft 443 kts 97°
2026-04-23 07:19 39.91359 95.17561 18949 ft 448 kts 106°
2026-04-23 07:20 39.90167 95.21331 19345 ft 453 kts 115°
2026-04-23 07:20 39.88763 95.25024 19742 ft 456 kts 115°
2026-04-23 07:20 39.87353 95.28741 20136 ft 460 kts 115°
2026-04-23 07:20 39.85932 95.32484 20521 ft 463 kts 114°
2026-04-23 07:21 39.84506 95.36251 20946 ft 466 kts 114°
2026-04-23 07:21 39.83073 95.40043 21324 ft 469 kts 114°
2026-04-23 07:21 39.81628 95.43861 21690 ft 472 kts 114°
2026-04-23 07:21 39.80173 95.47701 22095 ft 475 kts 114°
2026-04-23 07:22 39.78707 95.51557 22467 ft 478 kts 114°
2026-04-23 07:22 39.77227 95.55440 22813 ft 481 kts 114°
2026-04-23 07:22 39.75743 95.59350 23174 ft 484 kts 113°
2026-04-23 07:22 39.74255 95.63290 23501 ft 487 kts 113°
2026-04-23 07:23 39.72764 95.67247 23785 ft 489 kts 113°
2026-04-23 07:23 39.71264 95.71225 24088 ft 492 kts 113°
2026-04-23 07:23 39.69758 95.75218 24430 ft 493 kts 113°
2026-04-23 07:23 39.68243 95.79221 24717 ft 495 kts 114°
2026-04-23 07:24 39.66718 95.83234 24990 ft 497 kts 114°
2026-04-23 07:24 39.65186 95.87256 25249 ft 499 kts 114°
2026-04-23 07:24 39.63646 95.91299 25512 ft 501 kts 114°
2026-04-23 07:24 39.62100 95.95357 25778 ft 503 kts 114°
2026-04-23 07:25 39.60546 95.99426 26054 ft 505 kts 114°
2026-04-23 07:25 39.58984 96.03512 26318 ft 507 kts 114°
2026-04-23 07:25 39.57415 96.07609 26573 ft 509 kts 114°
2026-04-23 07:25 39.55836 96.11723 26874 ft 510 kts 114°
2026-04-23 07:26 39.54242 96.15830 27246 ft 510 kts 114°
2026-04-23 07:26 39.52632 96.19919 27574 ft 510 kts 114°
2026-04-23 07:26 39.51010 96.24003 27946 ft 510 kts 114°
2026-04-23 07:26 39.49387 96.28080 28307 ft 509 kts 114°
2026-04-23 07:27 39.47789 96.32097 28654 ft 509 kts 114°
2026-04-23 07:27 39.46171 96.36166 28995 ft 509 kts 114°
2026-04-23 07:27 39.44554 96.40235 29336 ft 508 kts 114°
2026-04-23 07:27 39.42938 96.44304 29662 ft 508 kts 114°
2026-04-23 07:28 39.41324 96.48368 30026 ft 508 kts 114°
2026-04-23 07:28 39.39706 96.52438 30284 ft 509 kts 114°
2026-04-23 07:28 39.38083 96.56513 30556 ft 509 kts 114°
2026-04-23 07:28 39.36457 96.60579 30801 ft 509 kts 114°
2026-04-23 07:29 39.34830 96.64640 31080 ft 509 kts 115°
2026-04-23 07:29 39.33203 96.68703 31369 ft 508 kts 115°
2026-04-23 07:29 39.31579 96.72758 31625 ft 508 kts 115°
2026-04-23 07:29 39.29954 96.76812 31912 ft 508 kts 115°
2026-04-23 07:30 39.28328 96.80859 32197 ft 508 kts 115°
2026-04-23 07:30 39.26699 96.84901 32493 ft 507 kts 115°
2026-04-23 07:30 39.25078 96.88938 32833 ft 506 kts 115°
2026-04-23 07:30 39.23475 96.92970 33155 ft 504 kts 114°
2026-04-23 07:31 39.21886 96.96999 33408 ft 504 kts 114°
2026-04-23 07:31 39.20299 97.01033 33652 ft 504 kts 114°
2026-04-23 07:31 39.18710 97.05063 33969 ft 504 kts 114°
2026-04-23 07:31 39.17122 97.09082 34239 ft 503 kts 114°
2026-04-23 07:32 39.15531 97.13094 34465 ft 503 kts 114°
2026-04-23 07:32 39.13936 97.17105 34706 ft 503 kts 114°
2026-04-23 07:32 39.12336 97.21114 34896 ft 503 kts 114°
2026-04-23 07:32 39.10754 97.25071 35077 ft 504 kts 114°
2026-04-23 07:33 39.09124 97.29144 35130 ft 507 kts 114°
2026-04-23 07:33 39.05885 97.37221 35136 ft 509 kts 114°
2026-04-23 07:34 39.02658 97.45254 35131 ft 509 kts 115°
2026-04-23 07:34 38.99404 97.53336 35130 ft 509 kts 114°
2026-04-23 07:35 38.96141 97.61407 35135 ft 509 kts 115°
2026-04-23 07:35 38.92875 97.69455 35137 ft 508 kts 115°
2026-04-23 07:36 38.89581 97.77468 35129 ft 507 kts 115°
2026-04-23 07:36 38.86255 97.85454 35129 ft 507 kts 116°
2026-04-23 07:37 38.82926 97.93428 35108 ft 507 kts 115°
2026-04-23 07:37 38.79613 98.01402 35130 ft 506 kts 116°
2026-04-23 07:38 38.76298 98.09361 35124 ft 506 kts 116°
2026-04-23 07:38 38.72979 98.17297 35123 ft 505 kts 116°
2026-04-23 07:39 38.70222 98.23888 35118 ft 505 kts 116°
2026-04-23 07:39 38.66899 98.31804 35115 ft 505 kts 116°
2026-04-23 07:40 38.63575 98.39709 35125 ft 504 kts 116°
2026-04-23 07:40 38.60239 98.47593 35122 ft 504 kts 116°
2026-04-23 07:41 38.56901 98.55456 35114 ft 503 kts 117°
2026-04-23 07:41 38.53563 98.63310 35112 ft 503 kts 116°
2026-04-23 07:42 38.50231 98.71157 35113 ft 503 kts 116°
2026-04-23 07:42 38.46897 98.79000 35104 ft 503 kts 117°
2026-04-23 07:43 38.43546 98.86826 35106 ft 503 kts 117°
2026-04-23 07:43 38.40203 98.94604 35108 ft 503 kts 117°
2026-04-23 07:44 38.36835 99.02423 35102 ft 503 kts 117°
2026-04-23 07:44 38.33470 99.10231 35124 ft 503 kts 117°
2026-04-23 07:45 38.30096 99.18031 35098 ft 503 kts 117°
2026-04-23 07:45 38.26727 99.25823 35089 ft 503 kts 117°
2026-04-23 07:46 38.23349 99.33620 35088 ft 503 kts 117°
2026-04-23 07:46 38.19957 99.41406 35095 ft 504 kts 118°
2026-04-23 07:47 38.16561 99.49192 35105 ft 504 kts 117°
2026-04-23 07:47 38.13245 99.57029 35107 ft 503 kts 117°
2026-04-23 07:48 38.09973 99.64891 35105 ft 504 kts 117°
2026-04-23 07:48 38.06677 99.72742 35098 ft 504 kts 117°
2026-04-23 07:49 38.03353 99.80575 35101 ft 504 kts 117°
2026-04-23 07:49 38.00022 99.88398 35095 ft 504 kts 117°
2026-04-23 07:50 37.96709 99.96162 35096 ft 504 kts 117°
2026-04-23 07:50 37.93367 100.03967 35082 ft 504 kts 117°
2026-04-23 07:51 37.89998 100.11822 35083 ft 504 kts 117°
2026-04-23 07:51 37.86650 100.19624 35083 ft 504 kts 117°
2026-04-23 07:52 37.83323 100.27368 35088 ft 504 kts 117°
2026-04-23 07:52 37.79962 100.35160 35095 ft 505 kts 117°
2026-04-23 07:53 37.76590 100.42942 35099 ft 504 kts 117°
2026-04-23 07:53 37.73218 100.50708 35091 ft 504 kts 117°
2026-04-23 07:54 37.69840 100.58471 35089 ft 504 kts 118°
2026-04-23 07:54 37.66459 100.66228 35091 ft 504 kts 118°
2026-04-23 07:55 37.63107 100.74006 35086 ft 504 kts 117°
2026-04-23 07:55 37.59844 100.81834 35076 ft 504 kts 116°
2026-04-23 07:56 37.56593 100.89667 35067 ft 504 kts 116°
2026-04-23 07:56 37.53300 100.97478 35070 ft 504 kts 117°
2026-04-23 07:57 37.49976 101.05265 35077 ft 504 kts 117°
2026-04-23 07:57 37.46658 101.13044 35068 ft 504 kts 117°
2026-04-23 07:58 37.43348 101.20825 35065 ft 504 kts 117°
2026-04-23 07:58 37.40028 101.28601 35044 ft 505 kts 116°
2026-04-23 07:59 37.36705 101.36367 35076 ft 504 kts 117°
2026-04-23 07:59 37.33383 101.44107 35077 ft 502 kts 117°
2026-04-23 08:00 37.30145 101.51875 35088 ft 500 kts 111°
2026-04-23 08:00 37.28031 101.60151 35090 ft 498 kts 103°
2026-04-23 08:01 37.26130 101.68510 35122 ft 498 kts 104°
2026-04-23 08:01 37.24215 101.76865 35127 ft 498 kts 104°
2026-04-23 08:02 37.22281 101.85221 35118 ft 499 kts 104°
2026-04-23 08:02 37.20347 101.93576 35104 ft 499 kts 104°
2026-04-23 08:03 37.18416 102.01942 35099 ft 499 kts 104°
2026-04-23 08:03 37.16469 102.10307 35120 ft 500 kts 105°
2026-04-23 08:04 37.14516 102.18680 35119 ft 501 kts 105°
2026-04-23 08:04 37.12567 102.26998 35127 ft 501 kts 105°
2026-04-23 08:05 37.09794 102.34988 35126 ft 502 kts 122°
2026-04-23 08:05 37.06067 102.42450 35101 ft 502 kts 122°
2026-04-23 08:06 37.02396 102.49815 35140 ft 502 kts 122°
2026-04-23 08:06 36.98702 102.57208 35138 ft 501 kts 122°
2026-04-23 08:07 36.95004 102.64590 35142 ft 501 kts 122°
2026-04-23 08:07 36.91308 102.71963 35115 ft 500 kts 122°
2026-04-23 08:08 36.87609 102.79317 35139 ft 500 kts 122°
2026-04-23 08:08 36.83897 102.86656 35132 ft 500 kts 122°
2026-04-23 08:09 36.80450 102.94176 35118 ft 500 kts 115°
2026-04-23 08:09 36.77441 103.01994 35111 ft 500 kts 115°
2026-04-23 08:10 36.74422 103.09797 35075 ft 499 kts 115°
2026-04-23 08:10 36.69880 103.21467 35104 ft 499 kts 116°
2026-04-23 08:11 36.66845 103.29254 35082 ft 500 kts 116°
2026-04-23 08:11 36.63803 103.37038 35076 ft 500 kts 116°
2026-04-23 08:12 36.60760 103.44824 35075 ft 500 kts 116°
2026-04-23 08:12 36.57698 103.52595 35082 ft 500 kts 116°
2026-04-23 08:13 36.54650 103.60318 35129 ft 500 kts 116°
2026-04-23 08:13 36.51409 103.67968 35129 ft 500 kts 120°
2026-04-23 08:14 36.47858 103.75402 35126 ft 500 kts 121°
2026-04-23 08:14 36.44254 103.82796 35106 ft 500 kts 121°
2026-04-23 08:15 36.40724 103.90242 35076 ft 500 kts 120°
2026-04-23 08:15 36.39548 103.92761 35070 ft 500 kts 120°